Location: Rowland
(34.5359°N, 79.2929°W)
Time: 20:17:42
(UTC+00:00)

Transit 2A Rocket - Pass Details

Date: 06 October 2022
Orbit: 589 x 911 km, 66.7° (Epoch: 03 December)

Event Time Altitude Azimuth Distance (km) Brightness Sun altitude
Rises 18:40:19 0° 342° (NNW) 3,050 7.8 44.3°
Reaches altitude 10° 18:42:42 10° 350° (N) 2,180 7.2 44.0°
Maximum altitude 18:47:22 39° 59° (ENE) 1,112 5.9 43.4°
Drops below altitude 10° 18:52:26 10° 128° (SE) 2,374 7.7 42.8°
Sets 18:55:07 0° 136° (SE) 3,354 8.4 42.5°
